Regional Weather Roundup
Issued by NWS

Home | Current Version | Previous Version | Graphics & Text | Print | Product List | Glossary On
Versions: 1 2 3 4 5 6 7 8 9 10 11 12 13 14 15 16 17 18 19 20 21 22 23 24 25 26 27 28 29 30 31 32 33 34 35 36 37 38 39 40 41 42 43 44 45 46 47 48 49 50
113
ASUS45 KTFX 101910
RWRMT
MONTANA REGIONAL WEATHER ROUNDUP
NATIONAL WEATHER SERVICE GREAT FALLS MT
1200 PM MST SAT DEC 10 2016

NOTE: "FAIR" INDICATES FEW OR NO CLOUDS BELOW 12000 FEET WITH NO
SIGNIFICANT WEATHER AND/OR OBSTRUCTIONS TO VISIBILITY.

MTZ001>007-043-102000-
WEST OF THE DIVIDE

CITY           SKY/WX    TMP DP  RH WIND       PRES   REMARKS
KALISPELL      CLOUDY    13   7  77 CALM      29.81S
MISSOULA       CLOUDY    19  16  88 S3        29.79S
BUTTE          LGT SNOW  30  25  81 N7        29.62F WCI  23
MULLAN PASS    FOG       16  15  96 VRB5      29.66R VSB 1/4
ANACONDA         N/A     36  25  64 W8        29.62S WCI  29
DEER LODGE       N/A     21  19  93 CALM      29.67R VSB 3/4
EUREKA           N/A     10   3  72 N3        29.87F
HAMILTON         N/A     21  16  79 CALM      29.77R
LIBBY            N/A     18  10  73 CALM      29.83S
RONAN            N/A     15  10  80 CALM      29.84R
$$

MTZ008-052>055-102000-
SOUTHWEST MONTANA

CITY           SKY/WX    TMP DP  RH WIND       PRES   REMARKS
BOZEMAN        FLURRIES  18  12  77 CALM      29.65F
DILLON         CLOUDY    31  23  72 S6        29.60F WCI  25
W YELLOWSTONE  MIX PCPN  28  27  93 W8        29.68F WCI  20
ENNIS          MOSUNNY   41  27  56 S20       29.64F
THREE FORKS      N/A     19 -14  22 CALM      29.68F
TWIN BRIDGES     N/A     26  19  74 CALM      29.66F
$$

MTZ009-010-012-014-046-048-049-054-102000-
EAST SLOPES AND CENTRAL MONTANA

CITY           SKY/WX    TMP DP  RH WIND       PRES   REMARKS
CUT BANK       LGT SNOW   3  -2  79 E5        29.68F
GREAT FALLS    CLOUDY     6   2  83 SW3       29.67F
MALMSTROM AFB  CLOUDY     8   4  84 W2        29.69F
HELENA         CLOUDY    12   5  73 E5        29.69S
AUGUSTA        PTSUNNY    2  -1  87 SW2       29.62F
BOWMANS CRNR     N/A      2   0  91 NW3       29.58F
CHOTEAU          N/A      5   1  85 MISG      29.69R
CONRAD           N/A      5   1  83 NE1       29.74R
FAIRFIELD      FLURRIES   4   0  85 W5        29.66F
POWER          FLURRIES   5   2  87 E3        29.65F
RAYNESFORD     PTSUNNY    7   3  84 NW5       29.63F
ULM            FLURRIES   3  -1  82 SW2       29.67F
$$

MTZ011-013-016-021-045-047-050-051-102000-
NORTH CENTRAL MONTANA

CITY           SKY/WX    TMP DP  RH WIND       PRES   REMARKS
HAVRE          LGT SNOW   5   1  83 E15       29.78F FOG     WCI -13
LEWISTOWN      LGT SNOW  12   8  84 N6        29.60F FOG     WCI   3
N BAR RANCH    PTSUNNY   18  16  93 E8G14     29.61F WCI   7
CHINOOK          N/A      3   0  85 E13       29.81F VSB 1   WCI -14
DENTON         LGT SNOW   8   4  87 NE14      29.62F WCI  -9
FORT BENTON      N/A      9   3  78 N6        29.76F WCI  -1
GEYSER         SNOWSHWR   8   4  84 E3        29.61F
GRASS RANGE    SNOWSHWR  10   7  89 E5        29.62F VSB 3/8
JUDITH GAP     LGT SNOW  20  17  88 S12       29.58F WCI   8
ROY            LGT SNOW   8   5  91 MISG      29.66F VSB 5/8
STANFORD       SNOWSHWR   9   7  91 S2        29.58F
WINIFRED       LGT SNOW   6   4  91 MISG      29.64F VSB 3/4
$$

MTZ017>020-022>027-061-062-102000-
NORTHEAST MONTANA

CITY           SKY/WX    TMP DP  RH WIND       PRES   REMARKS
GLASGOW        CLOUDY     1  -6  72 E18G28    29.89F WCI -20
JORDAN           N/A      9   3  77 E15       29.81F WCI  -8
SIDNEY         LGT SNOW   4  -4  69 SE10      30.04F WCI -11
WOLF POINT     LGT SNOW   2  -4  76 E15       29.98F WCI -17
PLENTYWOOD       N/A     -2  -8  78 E20       30.01F WCI -25
SCOBEY           N/A     -1 -13  56 E13       29.93F WCI -19
$$

MTZ028>42-056>058-102000-
SOUTHCENTRAL AND SOUTHEAST MONTANA

CITY           SKY/WX    TMP DP  RH WIND       PRES   REMARKS
BAKER          CLOUDY     2  -4  76 SE20      29.88F WCI -19
BILLINGS       LGT SNOW  14   9  80 CALM      29.67F
LIVINGSTON     SNOW      15  11  83 CALM      29.62F VSB 1/4
MILES CITY     CLOUDY    12   2  64 SE13      29.84F WCI  -3
BIG TIMBER     FOG       12   9  85 CALM      29.66F VSB 3/4
EKALAKA          N/A      3  -5  69 SE16      29.77F WCI -16
FORSYTH          N/A     12   7  79 E12       29.77F WCI  -2
HARLOWTON      FLURRIES  13  10  90 W8        29.62F WCI   2
LAUREL           N/A     15   0  51 S1        29.69F
$$

REGIONAL REPORTS...DAKOTAS

CITY           SKY/WX    TMP DP  RH WIND       PRES   REMARKS
WILLISTON      LGT SNOW   0  -7  72 SE13      30.09F WCI -18
MINOT          CLOUDY    -9 -14  78 E6        30.20F WCI -22
DICKINSON      CLOUDY    -2  -8  76 SE16      29.97F WCI -23
BEACH          CLOUDY     1   0  92 SE20G29   29.95S WCI -20
CROSBY         CLOUDY    -4  -9  77 E9        30.13F WCI -20
TIOGA          LGT SNOW  -2  -4  92 SE14      30.09F WCI -21
WATFORD CITY   CLOUDY     0  -6  78 E14       30.07F WCI -19
BISMARCK       FLURRIES  -8 -10  91 E7        30.21F WCI -23
GRAND FORKS    CLOUDY    -2  -8  76 S5        30.39F
FARGO          PTSUNNY    1  -8  66 E7        30.37F WCI -12
BUFFALO SD       N/A      4  -2  76 SE15      29.81F WCI -14
RAPID CITY     CLOUDY     5   1  83 SE9       29.84F WCI  -9
$$

REGIONAL REPORTS...WYOMING/IDAHO/WASHINGTON

CITY           SKY/WX    TMP DP  RH WIND       PRES   REMARKS
GILLETTE       CLOUDY    12   8  84 S10       29.68F WCI  -1
SHERIDAN       CLOUDY    17   8  67 N3        29.68F
BUFFALO WY     CLOUDY    22  13  68 SW3       29.65F
CODY           CLOUDY    22  13  68 CALM      29.62F
YELLOWSTONE LA   N/A     29  25  85 W9G25     29.68F WCI  20
IDAHO FALLS    CLOUDY    35  32  88 SW24G35   29.77F WCI  23
SALMON         CLOUDY    21  18  86 CALM      29.73F
BOISE          FOG       34  34 100 CALM      29.88S VSB 1/4
SPOKANE        CLOUDY    20  17  88 SW7       29.90R WCI  11
$$

REGIONAL REPORTS...ALBERTA

CITY           SKY/WX    TMP DP  RH WIND       PRES   REMARKS
EDMONTON       CLOUDY    -9 -17  70 SE2       29.98S
CALGARY        CRYSTALS  -2  -8  78 S5        29.75F
LETHBRIDGE     LGT SNOW   0  -4  85 NW6       29.78F VSB 3/4 WCI -12
MEDICINE HAT   FLURRIES   5   0  78 NW7       29.85F WCI  -7
WATERTON GATE    N/A      0  -8  71 NE5         N/A
CARDSTON         N/A     -2  -8  78 NW6         N/A  WCI -14
MILK RIVER       N/A      5   1  85 SE2         N/A
ONEFOUR          N/A      3  -2  78 E12         N/A  WCI -13
$$

REGIONAL REPORTS...SASKATCHEWAN

CITY           SKY/WX    TMP DP  RH WIND       PRES   REMARKS
SWIFT CURRENT  MOSUNNY    0  -6  78 SE17      29.86F WCI -21
REGINA         MOSUNNY   -8 -13  77 E14       30.09F WCI -28
SASKATOON      MOSUNNY    0  -6  78 E10       30.11F WCI -17
CYPRESS HILLS    N/A      0  -6  78 SE9         N/A  WCI -16
VAL MARIE        N/A      3  -2  78 SE13        N/A  WCI -14
ROCKGLEN         N/A      0  -4  85 SE16G22     N/A  WCI -21
ASSINIBOIA       N/A     -8 -13  77 E3          N/A
$$




USA.gov is the U.S. government's official web portal to all federal, state and local government web resources and services.